Regional Weather Roundup
Issued by NWS

Home | Current Version | Previous Version | Graphics & Text | Print | Product List | Glossary On
Versions: 1 2 3 4 5 6 7 8 9 10 11 12 13 14 15 16 17 18 19 20 21 22 23 24 25 26 27 28 29 30 31 32 33 34 35 36 37 38 39 40 41 42 43 44 45 46 47 48 49 50
000
ASUS45 KABQ 152201
RWRNM
NEW MEXICO REGIONAL WEATHER ROUNDUP
NATIONAL WEATHER SERVICE ALBUQUERQUE NM
300 PM MST SUN JAN 15 2017

NOTE: "FAIR" MEANS FEW OR NO CLOUDS BELOW 12,000 FEET AGL WITH NO
       SIGNIFICANT WEATHER OR OBSTRUCTIONS TO VISION.

      THIS PRODUCT IS RELEASED AS TWO VERSIONS.  ONE VERSION NEAR
      THE TOP OF THE HOUR CONTAINING PRELIMINARY DATA FROM ALBUQUERQUE
      AND OTHER STATIONS.  A FINAL VERSION WITH ADDITIONAL DATA IS
      ISSUED ABOUT 10 MINUTES AFTER THE HOUR.

NMZ501-503-504-510>518-152300-
NORTHWEST PLATEAU/NORTHCENTRAL MOUNTAINS

CITY           SKY/WX    TMP DP  RH WIND       PRES   REMARKS
FARMINGTON     LGT RAIN  42  39  89 W17       29.84S
LOS ALAMOS     SNOW      34  34 100 CALM      29.85F VSB<1/4
SANTA FE       CLOUDY    38  35  89 NW5       29.83F WCI  34
TAOS           CLOUDY    37  27  65 N10       29.85F WCI  30
ANGEL FIRE     CLOUDY    32  30  90 NE5       29.88S FOG     WCI  28

$$
NMZ402-403-502-505>509-152300-
WESTCENTRAL MOUNTAINS/SOUTHWEST MOUNTAINS

CITY           SKY/WX    TMP DP  RH WIND       PRES   REMARKS
GALLUP         CLOUDY    43  36  76 W9        29.87S
GRANTS         DRIZZLE   41  38  89 W8        29.86F
SILVER CITY    CLOUDY    45  40  82 W22G31    29.89R

$$
NMZ407-409-411-412-152300-
SOUTHERN DESERTS

CITY           SKY/WX    TMP DP  RH WIND       PRES   REMARKS
DEMING         LGT RAIN  46  42  86 W18G29    29.90S
LAS CRUCES     RAIN      43  41  93 W22       29.90S
HOLLOMAN AFB   DRIZZLE   47  45  91 W10G17    29.87R
ALAMOGORDO     RAIN      45  45 100 S13       29.85R
T OR C         CLOUDY    42  39  89 SW7       29.84F

$$
NMZ519>523-152300-
CENTRAL VALLEYS/CENTRAL HIGHLANDS

CITY           SKY/WX    TMP DP  RH WIND       PRES   REMARKS
ALBUQUERQUE    CLOUDY    42  35  76 E14       29.84S
DOUBLE EAGLE   CLOUDY    39  36  87 CALM      29.86R
MORIARTY ARPT  CLOUDY    36  33  88 S3        29.86F FOG
CLINES CORNERS FOG       31  29  92 NE12      29.85S VSB 1/2 WCI  22
BELEN          CLOUDY    41  38  87 W3        29.86S
SOCORRO        NOT AVBL

$$
NMZ524>526-539-540-152300-
SOUTHCENTRAL MOUNTAINS

CITY           SKY/WX    TMP DP  RH WIND       PRES   REMARKS
RUIDOSO        CLOUDY    36  36 100 CALM      29.84R

$$
NMZ527>531-152300-
NORTHEAST HIGHLANDS/NORTHEAST PLAINS

CITY           SKY/WX    TMP DP  RH WIND       PRES   REMARKS
LAS VEGAS      CLOUDY    32  30  92 NE12      29.86F FOG     WCI  23
RATON          FLURRIES  34  31  88 E3        29.88S
CLAYTON        LGT SNOW  32  32 100 N13       29.91F FOG     WCI  22

$$
NMZ532>537-152300-
EASTCENTRAL PLAINS

CITY           SKY/WX    TMP DP  RH WIND       PRES   REMARKS
TUCUMCARI      CLOUDY    34  33  96 E12       29.88F WCI  25
CANNON AFB     CLOUDY    35  35 100 E16       29.85F WCI  26
CLOVIS AIRPORT CLOUDY    36  32  87 NE13G18   29.86S WCI  27

$$
NMZ028-029-538-152300-
SOUTHEAST PLAINS

CITY           SKY/WX    TMP DP  RH WIND       PRES   REMARKS
ROSWELL        CLOUDY    43  38  82 NW8       29.85S
ARTESIA        CLOUDY    45  45 100 NW7       29.86R
CARLSBAD       NOT AVBL


$$




USA.gov is the U.S. government's official web portal to all federal, state and local government web resources and services.